Regional Weather Roundup
Issued by NWS

Home | Current Version | Previous Version | Text Only | Print | Product List | Glossary On
Versions: 1 2 3 4 5 6 7 8 9 10 11 12 13 14 15 16 17 18 19 20 21 22 23 24 25 26 27 28 29 30 31 32 33 34 35 36 37 38 39 40 41 42 43 44 45 46 47 48 49 50
000
ASUS44 KLIX 302010
RWRLA
LOUISIANA WEATHER ROUNDUP
NATIONAL WEATHER SERVICE NEW ORLEANS LA
300 PM CDT TUE SEP 30 2014

NOTE: "FAIR" INDICATES FEW OR NO CLOUDS BELOW 12,000 FEET WITH NO
      SIGNIFICANT WEATHER AND/OR OBSTRUCTIONS TO VISIBILITY.
      SKY/WX - SKY CONDITION AND SIGNIFICANT WEATHER.
      TMP - AIR TEMPERATURE.    DP   - DEWPOINT TEMPERATURE.
      RH  - RELATIVE HUMIDITY.  PRES - PRESSURE.
      HX  - HEAT INDEX.         WCI  - WIND CHILL INDEX.

*  THESE STATIONS ARE NOT NWS OR FAA STATIONS AND ARE NOT UNDER
   NWS QUALITY CONTROL.

LAZ040-048-061>063-065-066-069-302100-
SOUTHEAST LOUISIANA

CITY           SKY/WX    TMP DP  RH WIND       PRES   REMARKS
N.O. AUDUBON   NOT AVBL
N.O. INTL ARPT MOSUNNY   88  69  53 NE12      29.84F
N.O. LAKEFRONT SUNNY     86  70  58 E7        29.86F
N.O. DOWNTOWN* FAIR      86  68  54 NE9       29.86F
SLIDELL        PTSUNNY   85  70  60 SE5       29.85F
BATON ROUGE    PTSUNNY   87  69  54 E8        29.84F
BOOTHVILLE     MOSUNNY   82  74  76 NE10      29.86F
BELLE CHASSE   PTSUNNY   84  71  65 E10       29.85F
BOGALUSA*      FAIR      89  67  47 E3        29.86F
GALLIANO*      NOT AVBL
NEW ROADS*     FAIR      88  69  52 E3        29.84F
GONZALES*      FAIR      88  73  60 NE3       29.83F
HAMMOND*       PTSUNNY   86  68  54 SW6       29.86F
HOUMA*         PTSUNNY  N/A N/A N/A E5        29.84F
PORT FOURCHON* PTCLDY    82  73  74 E7        29.88F

$$

LAZ041-044-053-054-302100-
SOUTHWEST LOUISIANA

CITY           SKY/WX    TMP DP  RH WIND       PRES   REMARKS
LAKE CHARLES   PTSUNNY   87  72  60 VRB5      29.82F HAZE
LAFAYETTE      SUNNY     87  70  56 E5        29.84F
PATTERSON      SUNNY     90  73  58 CALM      29.86F HX  98
SALT POINT       N/A     88  74  63 VRB3      29.83F HX  96
NEW IBERIA     SUNNY     91  72  53 N5        29.84F HX  98
CHENAULT AIRPK NOT AVBL

$$

LAZ027-028-302100-
CENTRAL LOUISIANA

CITY           SKY/WX    TMP DP  RH WIND       PRES   REMARKS
FORT POLK      PTSUNNY   86  70  58 S8        29.83F
ALEXANDRIA INT MOSUNNY   91  68  46 SE7       29.82F HX  95
ALEXANDRIA     MOSUNNY   88  69  53 SE5       29.84F

$$

LAZ001-002-302100-
NORTHWEST LOUISIANA

CITY           SKY/WX    TMP DP  RH WIND       PRES   REMARKS
SHREVEPORT     PTSUNNY   91  66  43 S10       29.82F
BARKSDALE AFB  MOSUNNY   91  65  42 SE8       29.83F
DTN SHREVEPORT SUNNY     89  63  41 S8        29.82F

$$

LAZ014-016-302100-
NORTHEAST LOUISIANA

CITY           SKY/WX    TMP DP  RH WIND       PRES   REMARKS
MONROE         MOSUNNY   88  65  46 SW6       29.85F
TALLULAH       MOSUNNY   89  64  43 VRB5      29.85F

$$



USA.gov is the U.S. government's official web portal to all federal, state and local government web resources and services.